TimeCDT,TemperatureF,Dew PointF,Humidity,Sea Level PressureIn,VisibilityMPH,Wind Direction,Wind SpeedMPH,Gust SpeedMPH,PrecipitationIn,Events,Conditions,WindDirDegrees,DateUTC
12:53 AM,73.0,64.0,73,29.62,10.0,South,19.6,38.0,N/A,,Clear,180,2013-04-18 05:53:00
1:53 AM,73.0,64.0,73,29.60,10.0,South,19.6,31.1,N/A,,Scattered Clouds,180,2013-04-18 06:53:00
2:22 AM,71.6,64.4,78,29.61,10.0,South,23.0,32.2,N/A,,Mostly Cloudy,170,2013-04-18 07:22:00
2:37 AM,71.6,64.4,78,29.59,10.0,South,20.7,32.2,N/A,,Scattered Clouds,180,2013-04-18 07:37:00
2:53 AM,72.0,64.0,76,29.55,10.0,South,18.4,28.8,N/A,,Mostly Cloudy,170,2013-04-18 07:53:00
3:53 AM,72.0,63.0,73,29.53,10.0,South,19.6,36.8,N/A,,Scattered Clouds,180,2013-04-18 08:53:00
4:40 AM,71.6,62.6,73,29.56,9.0,South,24.2,33.4,0.00,Rain-Thunderstorm,Light Rain,180,2013-04-18 09:40:00
4:53 AM,70.0,64.9,84,29.52,6.0,South,20.7,29.9,0.11,Rain,Light Rain,180,2013-04-18 09:53:00
5:00 AM,69.8,64.4,83,29.57,10.0,South,17.3,28.8,0.00,Rain-Thunderstorm,Light Thunderstorms and Rain,180,2013-04-18 10:00:00
5:12 AM,66.2,60.8,83,29.64,1.5,West,32.2,46.0,0.17,Rain-Thunderstorm,Light Rain,260,2013-04-18 10:12:00
5:20 AM,62.6,60.8,94,29.64,0.8,WSW,17.3,46.0,0.34,Rain-Thunderstorm,Thunderstorms and Rain,240,2013-04-18 10:20:00
5:28 AM,62.6,60.8,94,29.62,1.8,WSW,11.5,26.5,0.45,Rain-Thunderstorm,Heavy Thunderstorms and Rain,250,2013-04-18 10:28:00
5:31 AM,62.6,60.8,94,29.63,2.0,WSW,11.5,-,0.46,Rain-Thunderstorm,Thunderstorms and Rain,250,2013-04-18 10:31:00
5:39 AM,62.6,60.8,94,29.63,5.0,SW,8.1,-,0.48,Rain-Thunderstorm,Thunderstorms and Rain,220,2013-04-18 10:39:00
5:53 AM,62.1,61.0,96,29.59,7.0,WSW,8.1,-,0.50,Rain-Thunderstorm,Light Rain,240,2013-04-18 10:53:00
6:08 AM,62.6,60.8,94,29.62,5.0,SW,6.9,-,0.04,Rain,Rain,220,2013-04-18 11:08:00
6:26 AM,60.8,60.8,100,29.62,8.0,South,5.8,-,0.07,Rain,Light Rain,190,2013-04-18 11:26:00
6:53 AM,61.0,60.1,97,29.60,4.0,South,6.9,-,0.17,Rain,Rain,180,2013-04-18 11:53:00
7:53 AM,61.0,59.0,93,29.58,4.0,South,6.9,-,0.17,Rain,Rain,170,2013-04-18 12:53:00
8:35 AM,60.8,59.0,94,29.63,2.0,South,5.8,-,0.15,Rain,Heavy Rain,180,2013-04-18 13:35:00
8:53 AM,60.1,59.0,96,29.60,2.0,South,8.1,-,0.24,Rain,Heavy Rain,180,2013-04-18 13:53:00
9:39 AM,60.8,60.8,100,29.59,4.0,SSE,9.2,-,0.17,Rain,Light Rain,160,2013-04-18 14:39:00
9:53 AM,62.1,60.1,93,29.56,10.0,SSE,8.1,-,0.17,Rain,Light Rain,160,2013-04-18 14:53:00
10:53 AM,62.1,61.0,96,29.56,8.0,SE,12.7,21.9,0.04,Rain,Light Rain,140,2013-04-18 15:53:00
11:53 AM,63.0,61.0,93,29.56,10.0,South,13.8,20.7,0.02,,Overcast,180,2013-04-18 16:53:00
12:18 PM,60.8,59.0,94,29.60,9.0,WSW,21.9,29.9,0.02,Rain,Light Rain,240,2013-04-18 17:18:00
12:28 PM,57.2,55.4,94,29.62,10.0,WSW,23.0,32.2,0.02,Rain,Light Rain,240,2013-04-18 17:28:00
12:53 PM,52.0,48.9,89,29.65,4.0,WSW,24.2,33.4,0.07,Rain,Rain,250,2013-04-18 17:53:00
1:53 PM,46.9,45.0,93,29.66,10.0,West,19.6,25.3,0.04,Rain,Light Rain,260,2013-04-18 18:53:00
2:31 PM,44.6,41.0,87,29.70,10.0,WSW,18.4,26.5,0.00,Rain,Light Rain,250,2013-04-18 19:31:00
2:53 PM,44.1,42.1,93,29.66,10.0,WSW,16.1,-,0.01,,Overcast,250,2013-04-18 19:53:00
3:00 PM,44.6,42.8,93,29.69,10.0,West,17.3,-,N/A,,Overcast,260,2013-04-18 20:00:00
3:09 PM,44.6,42.8,93,29.69,10.0,West,16.1,21.9,N/A,,Overcast,260,2013-04-18 20:09:00
3:48 PM,44.6,39.2,81,29.71,10.0,West,18.4,26.5,N/A,,Overcast,260,2013-04-18 20:48:00
3:53 PM,44.1,39.9,85,29.70,10.0,West,23.0,27.6,N/A,,Overcast,260,2013-04-18 20:53:00
4:53 PM,43.0,37.9,82,29.71,10.0,West,17.3,27.6,N/A,,Overcast,260,2013-04-18 21:53:00
5:53 PM,43.0,37.9,82,29.76,10.0,West,16.1,26.5,N/A,,Overcast,260,2013-04-18 22:53:00
6:53 PM,42.1,35.1,76,29.79,10.0,West,16.1,26.5,N/A,,Overcast,280,2013-04-18 23:53:00
7:46 PM,41.0,32.0,70,29.78,10.0,WNW,17.3,28.8,N/A,,Overcast,290,2013-04-19 00:46:00
7:53 PM,41.0,33.1,73,29.79,10.0,West,17.3,24.2,N/A,,Overcast,280,2013-04-19 00:53:00
8:53 PM,39.9,32.0,73,29.82,10.0,West,17.3,24.2,N/A,,Overcast,280,2013-04-19 01:53:00
9:30 PM,39.2,30.2,70,29.82,10.0,West,16.1,24.2,N/A,,Overcast,280,2013-04-19 02:30:00
9:53 PM,39.0,30.9,73,29.83,10.0,WNW,16.1,23.0,N/A,,Overcast,290,2013-04-19 02:53:00
10:34 PM,37.4,28.4,70,29.83,10.0,WNW,20.7,29.9,N/A,,Overcast,300,2013-04-19 03:34:00
10:43 PM,37.4,28.4,70,29.83,10.0,WNW,17.3,26.5,N/A,,Overcast,290,2013-04-19 03:43:00
10:53 PM,37.9,28.9,70,29.83,10.0,WNW,19.6,25.3,N/A,,Overcast,300,2013-04-19 03:53:00
11:53 PM,37.9,28.9,70,29.83,10.0,WNW,12.7,20.7,N/A,,Overcast,290,2013-04-19 04:53:00